Temp
72 72 72 72 72 72 73 72 73 73 73 73 73 73 72 72 72 71 70 70 70 70 70 70 70 69 69 70 70 69 69 69 69 70 69 68 68 67 65 66 66 67
72 72 71 72 71 72 73 73 73 73 73 73 74 74 74 73 72 71 70 69 69 69 70 70 70 69 69 69 69 68 68 68 68 68 67 67 67 67 66 66 66 67
72 71 71 71 71 71 72 73 73 73 73 73 74 74 73 73 72 71 71 70 70 70 70 70 69 69 69 68 68 67 66 66 66 67 65 65 65 65 65 65 65 65
72 72 72 71 71 71 72 72 72 72 73 72 72 73 73 72 72 71 70 67 70 69 70 70 69 69 69 68 67 66 66 65 66 66 65 64 64 64 64 64 64 63
72 72 72 72 71 72 72 71 71 71 71 72 72 72 72 72 70 70 69 69 69 69 69 69 69 69 68 67 66 65 64 64 64 64 63 62 63 63 62 62 61 60
72 72 72 71 71 71 71 70 71 71 71 71 71 72 72 71 70 69 69 68 68 68 68 68 68 68 67 66 66 65 63 62 63 63 61 60 60 61 61 61 60 58
70 71 71 72 71 71 70 70 71 71 71 71 72 71 71 70 70 69 69 68 67 67 67 68 68 68 67 66 65 64 63 63 62 61 60 59 59 59 59 59 58 57
70 71 71 71 70 70 70 70 70 70 70 70 70 70 71 70 70 69 69 69 68 67 67 67 67 67 67 66 65 63 63 63 62 60 58 57 57 57 57 58 57 56
70 70 70 70 69 69 69 69 69 69 70 69 69 69 70 70 70 70 69 69 68 66 67 66 66 66 66 66 65 64 62 61 61 59 58 56 56 56 56 56 56 56
68 69 69 69 68 68 68 68 69 69 69 69 69 69 69 69 69 70 69 67 66 65 65 65 65 65 65 65 64 63 62 61 60 59 58 57 57 57 57 56 56 55
66 67 67 67 67 68 67 68 68 68 68 68 68 68 69 68 68 68 67 66 65 64 64 64 64 64 64 64 63 62 61 61 60 59 58 58 57 57 52 56 56 55
65 65 66 66 66 67 67 67 68 68 68 67 67 67 67 67 66 65 65 65 65 64 63 63 63 63 63 62 61 60 60 60 59 58 58 57 57 57 57 57 56 56
63 64 65 65 65 66 66 67 67 67 66 66 66 65 65 65 64 64 64 64 63 63 62 62 61 60 60 60 60 59 59 58 58 58 58 57 57 57 57 57 57 57
62 63 64 64 64 65 65 65 66 66 66 66 65 63 62 63 63 62 61 59 60 60 61 61 60 60 59 59 59 59 58 57 57 57 57 57 56 57 57 57 57 57
60 61 62 63 63 63 63 63 64 64 65 65 64 62 61 61 61 60 59 58 58 58 59 59 58 59 59 58 58 58 58 57 57 56 56 56 56 56 56 56 56 56
59 59 59 59 59 59 59 60 61 61 61 61 61 61 59 57 57 58 58 57 57 57 57 57 58 58 52 50 51 57 57 57 57 56 56 56 55 54 53 52 54 54
58 58 58 57 57 56 56 54 54 54 54 54 54 55 56 55 54 55 55 56 56 56 56 56 57 57 49 49 49 50 55 57 56 56 56 55 55 54 53 49 48 48
57 57 56 55 55 54 53 50 49 48 49 50 50 49 50 47 49 52 54 54 55 55 55 55 56 49 49 49 48 48 48 55 56 56 55 55 54 54 53 50 48 47
56 55 55 54 53 52 50 46 46 45 46 46 46 47 44 46 49 49 50 51 53 53 53 54 54 49 48 48 48 47 47 49 56 55 54 54 54 52 50 48 47 46
55 55 53 54 52 50 46 44 44 44 45 45 45 44 45 46 46 46 47 48 50 51 52 52 51 48 47 47 47 46 47 47 53 54 54 53 51 50 49 47 46 45
55 54 53 52 50 49 46 44 43 43 43 44 43 44 44 45 45 45 46 46 46 47 48 49 50 46 45 46 46 46 46 46 51 52 52 50 50 47 47 47 46 45
55 54 52 51 50 48 44 43 42 42 42 42 42 43 43 44 44 44 45 45 45 44 45 46 47 45 44 44 44 45 45 47 49 50 49 47 45 45 45 45 44 44
55 53 51 50 49 46 45 43 42 42 41 42 41 41 41 42 43 43 44 44 43 43 44 45 45 43 43 43 43 44 44 46 46 45 45 44 44 42 42 42 42 43
55 53 51 49 49 46 44 44 44 41 41 40 41 40 40 41 42 42 43 42 42 43 43 44 44 42 41 42 42 43 43 45 44 44 42 42 41 40 40 40 41 38
53 51 50 49 47 47 46 43 41 40 40 40 41 42 42 42 41 42 42 41 41 42 38 42 43 41 41 41 41 42 42 43 43 43 42 41 41 40 38 39 39 37
53 51 49 47 46 45 44 43 40 40 39 40 41 42 42 42 42 42 41 40 39 39 39 41 42 42 42 41 41 41 42 42 43 43 42 41 40 40 38 37 38 38
MSLP
1008.87 1008.99 1009.11 1009.27 1009.23 1009.19 1009.27 1009.35 1009.35 1009.55 1009.63 1009.71 1009.83 1009.87 1010.03 1010.07 1010.27 1010.59 1010.83 1011.07 1011.39 1011.67 1011.87 1012.11 1012.31 1012.43 1012.63 1012.83 1012.91 1013.11 1013.23 1013.27 1013.27 1013.15 1013.31 1013.51 1013.59 1013.71 1013.99 1014.19 1014.23 1014.23
1008.39 1008.51 1008.63 1008.75 1008.79 1008.75 1008.79 1008.83 1008.95 1009.03 1009.11 1009.11 1009.11 1009.27 1009.39 1009.67 1009.87 1010.15 1010.47 1010.75 1010.95 1011.19 1011.35 1011.59 1011.75 1011.95 1012.19 1012.43 1012.59 1012.79 1012.95 1012.87 1012.87 1012.87 1013.07 1013.15 1013.15 1013.31 1013.51 1013.67 1013.83 1013.87
1007.95 1008.11 1008.27 1008.35 1008.27 1008.23 1008.31 1008.39 1008.55 1008.63 1008.63 1008.63 1008.75 1008.83 1008.95 1009.23 1009.55 1009.67 1009.91 1010.19 1010.47 1010.71 1010.87 1011.03 1011.23 1011.47 1011.75 1012.07 1012.27 1012.47 1012.63 1012.59 1012.67 1012.67 1012.83 1012.91 1012.95 1013.11 1013.15 1013.35 1013.43 1013.47
1007.51 1007.59 1007.67 1007.75 1007.83 1007.87 1007.91 1008.07 1008.11 1008.15 1008.19 1008.35 1008.39 1008.39 1008.63 1008.83 1009.11 1009.27 1009.51 1009.79 1009.99 1010.15 1010.31 1010.51 1010.71 1010.95 1011.23 1011.51 1011.79 1012.07 1012.19 1012.27 1012.31 1012.47 1012.59 1012.63 1012.63 1012.71 1012.91 1013.03 1013.11 1013.23
1007.07 1007.19 1007.27 1007.31 1007.39 1007.55 1007.67 1007.75 1007.75 1007.71 1007.79 1007.79 1007.91 1008.03 1008.23 1008.51 1008.75 1008.87 1009.07 1009.27 1009.51 1009.75 1009.91 1010.07 1010.23 1010.43 1010.71 1010.99 1011.23 1011.55 1011.79 1011.91 1011.99 1012.15 1012.27 1012.31 1012.27 1012.43 1012.51 1012.75 1012.83 1012.95
1006.67 1006.71 1006.83 1007.03 1007.11 1007.31 1007.43 1007.43 1007.39 1007.47 1007.51 1007.63 1007.63 1007.75 1007.87 1007.95 1008.19 1008.35 1008.55 1008.83 1009.03 1009.19 1009.39 1009.55 1009.75 1009.91 1010.19 1010.43 1010.67 1010.91 1011.23 1011.47 1011.47 1011.67 1011.87 1011.95 1012.03 1012.11 1012.23 1012.35 1012.47 1012.67
1006.55 1006.59 1006.71 1006.79 1006.91 1006.99 1007.15 1007.11 1007.11 1007.15 1007.19 1007.19 1007.35 1007.51 1007.55 1007.71 1007.79 1007.79 1007.99 1008.27 1008.59 1008.83 1008.91 1008.99 1009.15 1009.31 1009.59 1009.91 1010.15 1010.35 1010.59 1010.75 1010.95 1011.15 1011.35 1011.55 1011.71 1011.83 1011.91 1011.99 1012.07 1012.23
1006.31 1006.31 1006.35 1006.39 1006.55 1006.63 1006.71 1006.67 1006.63 1006.67 1006.71 1006.95 1007.03 1006.99 1007.23 1007.35 1007.51 1007.59 1007.55 1007.67 1007.99 1008.35 1008.55 1008.55 1008.63 1008.79 1009.07 1009.35 1009.59 1009.83 1010.03 1010.19 1010.39 1010.59 1010.83 1011.07 1011.23 1011.35 1011.47 1011.55 1011.71 1011.87
1006.07 1006.03 1005.95 1005.99 1006.07 1006.03 1006.07 1006.07 1006.15 1006.19 1006.31 1006.55 1006.67 1006.67 1006.71 1006.87 1006.99 1007.07 1007.19 1007.19 1007.43 1007.79 1007.99 1008.23 1008.31 1008.39 1008.47 1008.67 1008.91 1009.15 1009.39 1009.63 1009.75 1010.03 1010.27 1010.51 1010.67 1010.75 1010.95 1011.15 1011.31 1011.31
1005.75 1005.67 1005.71 1005.71 1005.71 1005.59 1005.67 1005.71 1005.79 1005.95 1005.99 1006.19 1006.23 1006.31 1006.47 1006.51 1006.59 1006.63 1006.79 1006.87 1007.03 1007.31 1007.55 1007.71 1007.91 1007.95 1008.03 1008.11 1008.35 1008.63 1008.79 1009.03 1009.27 1009.43 1009.63 1009.83 1010.03 1010.23 1010.51 1010.71 1010.79 1010.95
1005.51 1005.47 1005.55 1005.51 1005.47 1005.43 1005.43 1005.47 1005.55 1005.67 1005.71 1005.79 1005.95 1006.03 1006.11 1006.31 1006.39 1006.35 1006.43 1006.55 1006.67 1006.87 1007.07 1007.23 1007.35 1007.51 1007.63 1007.79 1007.95 1008.11 1008.31 1008.55 1008.75 1008.91 1009.07 1009.27 1009.43 1009.63 1009.87 1010.11 1010.27 1010.31
1005.47 1005.39 1005.35 1005.35 1005.35 1005.35 1005.31 1005.31 1005.31 1005.31 1005.35 1005.43 1005.51 1005.67 1005.83 1005.95 1006.03 1006.07 1006.15 1006.27 1006.35 1006.55 1006.79 1007.03 1007.19 1007.27 1007.39 1007.51 1007.71 1007.95 1008.11 1008.23 1008.35 1008.51 1008.71 1008.91 1009.07 1009.19 1009.35 1009.51 1009.63 1009.75
1005.35 1005.23 1005.11 1005.11 1005.15 1005.19 1005.15 1005.11 1005.07 1005.07 1005.07 1005.11 1005.15 1005.43 1005.59 1005.59 1005.67 1005.87 1005.95 1006.15 1006.27 1006.51 1006.67 1006.79 1006.95 1007.15 1007.31 1007.47 1007.63 1007.75 1007.91 1008.07 1008.15 1008.23 1008.35 1008.51 1008.59 1008.71 1008.79 1008.95 1009.11 1009.27
1005.11 1005.07 1005.11 1004.99 1004.95 1004.91 1004.95 1004.91 1004.91 1004.83 1004.83 1004.83 1004.91 1005.07 1005.19 1005.31 1005.43 1005.59 1005.75 1005.99 1006.15 1006.27 1006.35 1006.55 1006.71 1006.83 1007.03 1007.19 1007.27 1007.35 1007.55 1007.71 1007.83 1007.95 1008.03 1008.07 1008.11 1008.19 1008.35 1008.51 1008.67 1008.79
1005.23 1005.11 1004.99 1004.95 1004.91 1004.87 1004.75 1004.75 1004.71 1004.67 1004.67 1004.71 1004.67 1004.67 1004.79 1004.95 1005.11 1005.27 1005.51 1005.71 1005.87 1005.95 1005.99 1006.19 1006.31 1006.39 1006.47 1006.63 1006.79 1006.91 1007.07 1007.19 1007.35 1007.47 1007.59 1007.71 1007.79 1007.87 1007.91 1007.99 1008.07 1008.19
1005.23 1005.15 1005.11 1005.07 1005.03 1004.87 1004.75 1004.67 1004.63 1004.63 1004.67 1004.71 1004.63 1004.59 1004.67 1004.87 1005.03 1005.11 1005.27 1005.31 1005.35 1005.43 1005.59 1005.71 1005.71 1005.71 1005.75 1005.91 1006.11 1006.31 1006.51 1006.63 1006.75 1006.87 1006.95 1007.11 1007.23 1007.39 1007.55 1007.63 1007.63 1007.71
1004.99 1004.91 1004.91 1004.87 1004.79 1004.87 1004.87 1004.95 1005.03 1005.11 1005.15 1005.11 1005.07 1005.03 1004.91 1004.91 1005.03 1005.03 1004.91 1004.83 1004.91 1005.03 1005.11 1005.11 1005.07 1005.03 1005.15 1005.35 1005.51 1005.63 1005.79 1005.91 1006.07 1006.19 1006.35 1006.47 1006.59 1006.71 1006.83 1007.11 1007.35 1007.55
1004.71 1004.63 1004.63 1004.55 1004.55 1004.55 1004.75 1005.07 1005.35 1005.43 1005.31 1005.23 1005.27 1005.27 1005.27 1005.35 1005.11 1004.71 1004.59 1004.59 1004.55 1004.55 1004.51 1004.39 1004.35 1004.35 1004.59 1004.75 1004.87 1005.03 1005.23 1005.35 1005.39 1005.55 1005.71 1005.79 1005.91 1006.07 1006.19 1006.59 1006.95 1007.27
1004.47 1004.39 1004.27 1004.15 1004.19 1004.35 1004.59 1004.91 1005.19 1005.35 1005.31 1005.27 1005.11 1005.11 1005.47 1005.39 1004.95 1004.91 1004.59 1004.43 1004.39 1004.19 1003.95 1003.79 1003.75 1003.75 1004.03 1004.07 1004.27 1004.51 1004.71 1004.91 1004.87 1004.95 1005.11 1005.19 1005.35 1005.59 1005.91 1006.23 1006.55 1006.83
1003.99 1003.91 1003.79 1003.75 1003.91 1004.31 1004.71 1004.91 1004.99 1004.75 1004.63 1004.83 1004.95 1004.95 1004.99 1004.99 1004.95 1004.87 1004.63 1004.51 1004.27 1004.11 1003.95 1003.83 1003.75 1003.63 1003.67 1003.75 1003.95 1004.11 1004.31 1004.59 1004.51 1004.51 1004.55 1004.67 1004.87 1005.15 1005.47 1005.79 1006.07 1006.39
1003.55 1003.27 1003.23 1003.39 1003.75 1004.07 1004.47 1004.83 1004.95 1004.67 1004.43 1004.15 1004.19 1004.27 1004.27 1004.19 1004.31 1004.43 1004.23 1004.15 1004.11 1004.11 1004.11 1003.99 1003.83 1003.91 1003.99 1003.99 1004.07 1004.11 1004.19 1004.35 1004.35 1004.35 1004.35 1004.43 1004.63 1004.91 1005.15 1005.39 1005.71 1005.99
1003.19 1003.03 1002.91 1002.99 1003.23 1003.59 1003.99 1004.23 1004.39 1004.47 1004.63 1004.83 1004.87 1004.47 1004.15 1004.03 1003.91 1003.87 1003.63 1003.67 1003.75 1003.95 1003.99 1003.79 1003.63 1003.87 1003.95 1004.03 1004.07 1004.15 1004.27 1004.43 1004.39 1004.35 1004.27 1004.39 1004.63 1004.87 1005.07 1005.27 1005.51 1005.79
1002.87 1003.03 1003.11 1003.07 1003.11 1003.15 1003.27 1003.51 1003.71 1003.83 1004.03 1004.31 1004.51 1004.47 1004.47 1004.15 1003.71 1003.75 1003.79 1003.71 1003.51 1003.55 1003.59 1003.43 1003.47 1003.63 1003.79 1003.87 1003.95 1004.03 1004.23 1004.27 1004.35 1004.39 1004.39 1004.43 1004.55 1004.79 1005.03 1005.19 1005.35 1005.51
1002.63 1002.71 1002.71 1002.75 1002.87 1002.87 1002.79 1002.75 1002.91 1003.19 1003.43 1003.71 1003.95 1003.95 1003.99 1003.75 1003.71 1003.59 1003.47 1003.39 1003.15 1002.91 1002.91 1003.03 1002.99 1003.19 1003.39 1003.51 1003.59 1003.67 1003.83 1003.91 1004.03 1004.15 1004.23 1004.39 1004.55 1004.75 1004.91 1005.07 1005.15 1005.27
1002.55 1002.51 1002.47 1002.51 1002.59 1002.51 1002.59 1002.63 1002.67 1002.75 1002.87 1003.23 1003.39 1003.51 1003.47 1003.51 1003.63 1003.47 1003.23 1003.15 1002.91 1002.59 1002.55 1002.67 1002.59 1002.79 1002.99 1003.07 1003.15 1003.23 1003.43 1003.51 1003.63 1003.79 1003.95 1004.15 1004.31 1004.51 1004.91 1004.95 1005.07 1005.27
1002.39 1002.39 1002.35 1002.43 1002.31 1002.27 1002.39 1002.47 1002.63 1002.87 1003.03 1003.11 1003.07 1003.15 1003.15 1003.15 1003.15 1003.15 1003.07 1002.91 1003.03 1002.91 1002.59 1002.47 1002.47 1002.47 1002.63 1002.71 1002.83 1002.95 1002.99 1003.11 1003.27 1003.39 1003.35 1003.47 1003.87 1004.03 1004.47 1004.87 1004.95 1005.15
Wind_Speed
13 12 12 12 13 12 12 13 12 12 11 11 11 11 11 11 11 12 13 12 13 14 14 14 13 11 10 11 11 11 12 13 12 12 13 12 13 13 12 14 13 12
15 13 11 11 11 11 12 12 12 12 12 12 11 10 9 9 10 11 12 13 13 14 13 13 12 11 12 11 11 12 12 11 12 8 10 12 11 11 13 14 14 13
14 13 14 15 14 14 14 12 12 12 12 12 11 10 9 8 9 11 11 12 12 13 13 12 12 11 11 11 11 11 11 11 11 10 10 11 11 11 11 11 11 13
14 14 14 14 14 14 13 12 12 12 11 11 12 10 9 8 9 11 11 11 11 12 12 12 12 12 12 12 11 10 10 11 11 10 10 10 11 11 11 10 10 10
13 14 13 13 12 12 12 12 13 12 12 12 10 10 10 10 11 11 10 11 12 11 11 12 12 12 12 11 12 11 11 11 11 11 10 11 12 11 10 9 10 11
12 12 12 12 12 11 12 13 13 12 12 12 12 9 10 11 11 11 11 11 11 12 12 12 12 12 12 12 12 11 11 11 11 12 11 11 11 10 9 10 11 11
11 10 12 11 12 12 12 12 12 11 11 11 9 10 10 11 11 12 12 11 11 11 13 13 13 12 12 12 12 12 12 12 11 12 12 10 10 11 10 11 11 11
11 10 10 10 11 12 12 12 12 12 11 10 11 11 11 11 12 10 11 12 12 12 12 13 13 13 13 12 13 13 14 11 11 12 12 11 10 11 11 11 10 11
10 10 11 12 13 12 13 13 12 11 10 10 11 10 10 11 12 12 11 12 12 12 12 12 13 13 13 13 13 14 14 13 12 12 12 12 12 12 11 10 11 12
11 10 10 11 11 11 12 12 10 10 9 10 11 10 11 11 12 12 12 11 11 11 12 13 13 13 13 13 14 13 14 14 13 13 12 12 12 11 11 11 12 11
10 9 9 10 11 9 11 10 10 9 8 10 9 10 10 10 10 11 11 11 11 12 13 14 13 13 13 13 12 12 13 13 13 12 12 12 12 12 12 12 12 13
9 8 9 10 10 10 10 9 9 10 9 8 9 11 10 10 10 9 10 11 11 11 12 12 12 12 12 12 11 11 11 12 12 11 11 12 11 12 12 12 13 12
8 8 8 8 8 9 8 8 9 9 9 10 8 10 11 11 10 10 10 10 10 9 11 11 11 10 10 10 10 10 11 11 11 11 12 11 12 12 12 12 12 12
8 6 7 7 7 7 8 9 9 8 9 9 8 10 11 12 11 11 9 8 10 10 11 10 10 9 9 10 11 11 11 11 11 11 11 11 11 12 12 11 11 11
6 5 5 6 6 7 7 8 9 9 9 9 9 9 9 10 10 10 9 9 9 10 11 10 10 11 10 10 11 11 10 11 11 11 11 11 10 10 9 10 11 12
6 6 5 6 6 7 8 8 8 7 7 8 9 9 8 7 8 8 8 10 11 11 10 11 11 10 13 17 15 11 10 10 10 11 12 11 11 10 9 9 11 10
6 6 6 8 8 7 7 7 7 6 7 7 8 8 8 7 6 8 10 11 11 10 11 11 11 11 17 17 18 19 14 11 12 11 11 11 11 12 11 10 9 8
6 7 7 8 7 8 7 5 5 6 8 9 9 9 9 5 8 11 10 10 10 11 11 12 12 15 17 18 19 19 17 13 11 11 11 11 11 11 10 9 9 9
7 7 8 9 9 8 7 4 6 8 10 9 11 8 5 9 12 10 11 10 10 12 13 13 12 15 18 20 19 19 20 17 12 11 11 11 10 10 9 8 8 8
8 8 9 9 7 6 6 6 8 11 10 9 8 7 9 10 10 11 10 10 12 12 12 11 11 13 17 18 18 18 18 17 12 11 11 11 11 10 9 9 9 9
8 8 8 7 5 5 6 8 9 10 10 10 9 10 11 12 11 11 12 11 11 10 10 11 11 12 13 14 15 16 16 15 11 10 10 8 8 8 9 9 9 10
9 9 8 6 6 6 8 9 9 10 10 7 7 8 8 7 9 10 12 11 9 8 9 12 10 11 13 13 14 14 14 10 9 9 9 7 7 6 7 7 7 8
8 7 7 7 6 7 9 10 10 10 9 6 8 9 8 9 11 9 8 8 9 9 10 12 10 9 12 14 14 14 11 8 7 7 6 7 7 6 6 6 7 8
8 7 8 8 7 9 10 9 9 5 6 4 8 9 10 11 8 8 9 9 10 11 11 11 11 9 13 14 15 15 13 9 8 7 7 7 6 6 5 6 7 11
7 7 8 8 9 9 8 8 6 6 5 4 7 8 10 8 6 9 8 8 9 10 10 12 10 9 13 14 16 16 12 9 7 7 7 8 7 7 4 4 5 7
7 8 8 8 9 9 7 8 4 4 4 5 7 7 8 8 6 8 9 8 6 8 7 9 9 8 10 15 16 16 17 10 7 8 10 10 8 8 7 5 5 6
Wind_Direction
220 220 220 221 222 222 222 218 218 218 215 212 211 210 209 208 200 193 196 196 200 209 209 213 212 210 218 223 216 220 225 226 225 227 224 220 224 219 220 225 223 226
221 220 219 223 228 223 225 226 221 220 220 218 217 216 211 206 198 192 190 194 196 204 205 206 207 208 215 221 220 219 224 227 228 221 226 222 226 223 224 225 228 227
221 219 220 220 222 223 222 222 224 225 226 225 223 217 215 204 205 194 192 195 198 202 204 204 204 207 213 216 220 222 224 224 226 223 220 221 220 221 225 226 228 227
222 222 220 222 225 225 222 222 221 223 224 223 220 216 213 206 204 196 195 189 202 202 203 202 205 208 211 214 212 218 222 226 226 226 223 217 217 218 218 221 223 225
221 222 224 226 225 226 226 224 223 221 221 220 221 216 209 205 197 194 193 196 200 201 200 202 206 210 212 212 208 213 216 222 220 220 222 216 217 215 217 215 216 220
227 225 225 225 225 225 225 227 227 227 223 224 222 217 216 208 202 196 198 198 199 202 202 202 203 206 212 215 211 211 209 216 216 213 215 216 213 213 214 215 214 216
229 227 228 227 228 226 229 229 229 226 230 228 222 224 222 218 211 203 199 198 201 203 207 209 212 213 211 212 213 211 211 216 215 211 211 211 208 211 210 213 214 216
233 231 227 226 227 226 225 228 226 224 221 222 225 226 228 228 225 222 215 208 210 212 213 215 215 214 212 211 212 211 211 211 212 206 206 208 206 213 211 212 213 216
236 231 226 224 223 222 223 221 223 222 220 224 228 228 229 232 231 231 223 212 212 214 214 218 218 216 213 213 213 210 207 208 207 203 204 206 209 213 213 213 217 217
233 233 231 228 227 226 226 224 224 226 220 226 229 230 231 232 233 231 225 210 210 209 211 213 216 216 215 213 213 210 211 210 211 211 209 210 211 214 216 216 219 220
237 233 235 232 232 232 231 228 225 223 220 222 227 233 233 234 232 228 223 210 209 209 211 213 215 217 218 216 213 211 211 215 216 216 217 217 217 216 214 216 220 222
243 238 236 237 237 238 235 231 228 226 225 222 221 233 233 231 227 214 216 219 217 214 216 218 219 220 220 218 215 215 220 221 220 219 219 218 218 217 217 216 220 220
243 238 236 237 237 239 241 238 234 229 225 225 218 222 229 232 225 223 221 227 228 222 222 221 222 221 224 222 222 221 222 223 222 220 218 218 219 219 218 218 219 220
243 243 248 243 242 239 238 239 238 235 231 228 220 215 220 227 230 228 227 221 225 226 225 222 224 222 217 220 222 221 218 219 218 220 222 223 221 218 216 217 221 223
256 249 248 248 240 242 240 239 241 240 240 237 231 226 221 224 225 223 220 219 218 221 223 219 221 222 219 216 218 219 217 217 217 218 219 221 224 223 221 219 220 220
248 244 238 243 247 244 245 247 249 253 257 252 246 240 229 219 223 224 222 222 222 220 218 218 220 220 216 212 209 211 213 216 216 217 216 217 218 220 220 219 221 220
240 241 237 236 232 235 239 244 248 254 256 256 255 253 245 232 222 224 224 225 224 222 219 219 220 219 213 209 210 209 210 214 214 216 214 216 218 218 218 215 219 219
242 243 237 240 229 228 228 237 250 250 248 245 247 249 250 254 236 230 229 226 225 225 224 221 222 216 209 211 210 210 209 215 217 217 214 216 216 218 219 213 213 214
242 240 242 242 238 238 228 215 226 236 243 242 240 240 246 238 242 239 235 232 229 229 230 227 227 214 210 212 210 210 211 212 221 217 215 218 216 215 215 211 207 209
234 233 238 247 248 235 224 230 228 233 232 232 239 232 229 241 243 240 241 234 232 236 240 239 236 224 214 215 212 210 211 211 225 221 221 219 215 207 206 205 204 204
237 229 238 249 241 231 226 236 243 252 243 233 220 222 222 226 230 233 234 233 233 233 243 245 243 236 227 223 219 216 215 212 223 225 227 224 215 207 205 205 202 201
246 249 249 241 230 221 226 238 240 241 251 265 266 257 247 242 242 234 235 230 231 228 234 244 244 232 227 226 224 222 220 222 228 229 227 221 217 211 210 205 199 194
256 261 265 257 245 237 235 238 241 244 243 231 242 247 251 244 240 240 246 240 230 223 228 241 243 228 223 223 224 223 220 224 221 227 229 220 218 206 206 203 200 193
276 258 258 255 247 244 244 243 236 235 237 211 229 243 242 244 246 247 239 234 229 224 219 230 240 218 212 217 218 218 210 215 211 211 219 211 212 205 204 203 202 198
285 271 259 256 253 254 253 257 249 239 231 208 228 234 246 250 240 245 247 238 233 231 213 219 234 221 207 213 216 214 208 208 200 199 204 207 199 204 196 193 194 199
288 280 268 260 258 259 255 251 253 248 234 230 234 231 244 243 240 240 245 247 243 237 233 225 232 235 217 220 219 215 206 198 190 191 205 202 196 190 184 195 192 194